Showing default

OUTPOST MISSION 1, 56226

Orbit data source: Space-Track

OUTPOST MISSION 1, 56226 is a payload satellite owned by Outpost Tech (US) in SSO that was launched on Mon, 12 Jun 2023 UTC via an FALCON 9 launch vehicle from the Air Force Western Test Range (AFWTR). Payload-class satellites include a variety of spacecraft equipped with specific instruments for various scientific and technological missions. These include communications satellites like Starlink; space stations such as the ISS; scientific satellites like the Hubble; Earth observation satellites from companies like Planet Labs, Umbra, and HawkEye 360; GPS; miniature CubeSats for education and research; and military/defense satellites.

Loading next visibility...
Identifier
56226, 2023-084BK
Orbit
SSO
Country
Flag of USUS
Related business
Manufacturer
Outpost Tech
Mission
Operational Commercial Technology
Bus & Motor
CUBESAT 3U, Unknown motor
Mass
3 kg wet, 3 kg dry
Launch date (UTC)
2023-06-12 (3 years ago)
Launch vehicle
FALCON 9
Launch site
Air Force Western Test Range (AFWTR)
Object type
Payload
Rocket body
Debris
Shape & HBR
Box, 0.1 m
Radar Cross Section
0.035 m², Small (<0.1 m²)

Expand to show TLE details & history
Last TLE update: 1 day ago

TLE from 1 day ago
0 OUTPOST MISSION 1
1 56226U 23084BK  26106.47552887  .00086622  00000-0  49560-3 0  9990
2 56226  97.5992 263.1600 0002359 162.9631 197.1714 15.78600079159221
Epoch: 2026-04-16T11:24Z
TLE epoch observation values (Epoch: 2026-04-16T11:24:45.694Z)
Latitude
-0.00009°
Longitude
-112.65292°
Altitude
339.083 km
Speed
7.704 km/s
True Right ascension
17h 32m 38s
True Declination
0° 00' 00"
Sunlit
Object was in full shadow at epoch
Visualization orbit readout
Latitude
Unknown
Longitude
Unknown
Altitude
Unknown
Speed
Unknown
Apparent Right ascension
Unknown
Apparent Declination
Unknown
Sunlit
N/A
Visualization observer readout
Local Sidereal Time
01:06:34
Azimuth
Unknown
Elevation
Unknown
Doppler factor
Unknown
Orbital elements
Apogee altitude
332.886 km
Perigee altitude
329.72 km
Semi-major axis
6,709.44 km
Eccentricity
0.00024
Inclination
97.5992°
RAAN
263.16°
Arg. of periapsis
162.9631°
True anomaly
197.16342°
Mean anomaly
197.1714°
Eccentric anomaly
197.16741°
Mean motion
3.94924 °/min
Orbital period
91.16 mins
BSTAR
0.0004956
Loading maneuver chart data...
Computing Atmospheric mass density...
Loading historical data...
Loading historical data...
Loading historical data...
Loading historical data...
Loading historical data...
Loading historical data...
Loading historical data...

Documentation

Showing up to 5 results
|